Location: Red Rock Canyon
(36.1333°N, 115.4333°W)
Time: 17:49:08
(UTC-07:00)

ISS - Visible Passes

Search period start: 19 April 2015 00:00
Search period end: 29 April 2015 00:00
Orbit: 395 x 403 km, 51.6° (Epoch: 19 April)

Date Brightness Start Highest point End Pass type
(mag) Time Alt. Az. Time Alt. Az. Time Alt. Az.
19 Apr -2.0 20:35:01 10° NNW 20:37:55 29° NNE 20:38:46 25° ENE visible
20 Apr -2.2 21:17:09 10° WNW 21:19:37 41° W 21:19:37 41° W visible
21 Apr -3.3 20:23:05 10° NW 20:26:20 66° NE 20:27:55 27° ESE visible
22 Apr -1.4 21:05:52 10° W 21:08:24 21° SW 21:08:47 20° SW visible
23 Apr -2.5 20:11:14 10° WNW 20:14:22 46° SW 20:17:08 12° SSE visible
25 Apr -0.9 19:59:42 10° W 20:02:04 18° SW 20:04:22 10° S visible
